OZ1IEP-5 Weather Reports


Display with metric or nautical units.
time (UTC)temp
F
wind
direction
speed
MPH
gust
MPH
rain 1hr
in
rain 24hr
in
rain mn
in
humidity
%
barometer
mb
20260901072006 61 297 0.0 3.0 0.00 0.27 0.02 94 1008.8
20260901071006 61 300 0.0 8.0 0.00 0.28 0.02 94 1008.8
20260901070008 61 274 0.0 7.0 0.00 0.28 0.02 94 1008.7
20260901065006 61 247 1.0 6.0 0.00 0.28 0.02 94 1008.7
20260901064006 61 240 0.0 3.0 0.00 0.28 0.02 94 1008.6
20260901063008 61 309 0.0 3.0 0.00 0.28 0.02 94 1008.5
20260901062006 60 299 1.0 5.0 0.00 0.28 0.02 94 1008.3
20260901061006 60 302 1.0 9.0 0.00 0.28 0.02 94 1008.3
20260901060008 60 301 1.0 5.0 0.00 0.28 0.02 94 1008.3
20260901055006 60 301 2.0 7.0 0.00 0.28 0.02 94 1008.2
20260901054006 60 298 1.0 6.0 0.00 0.28 0.02 94 1008.2
20260901053009 59 301 1.0 6.0 0.00 0.28 0.02 94 1008.1
20260901052006 59 312 1.0 6.0 0.00 0.28 0.02 94 1007.9
20260901051006 59 281 0.0 3.0 0.00 0.28 0.02 94 1007.8
20260901050008 59 294 0.0 2.0 0.00 0.28 0.02 94 1007.8
20260901045006 59 292 0.0 0.0 0.00 0.28 0.02 94 1007.7
20260901044006 59 255 0.0 0.0 0.00 0.28 0.02 94 1007.7
20260901043008 59 231 0.0 1.0 0.00 0.28 0.02 94 1007.6
20260901042006 59 219 0.0 0.0 0.00 0.28 0.02 94 1007.5
20260901041007 58 228 0.0 0.0 0.00 0.28 0.02 94 1007.5
20260901040009 58 216 0.0 0.0 0.00 0.28 0.02 94 1007.5
20260901035006 58 237 0.0 0.0 0.02 0.28 0.02 94 1007.4
20260901034007 58 212 0.0 0.0 0.02 0.28 0.02 94 1007.3
20260901033009 59 210 0.0 0.0 0.02 0.28 0.02 94 1007.3
20260901032007 58 217 0.0 0.0 0.02 0.28 0.02 94 1007.2
20260901031006 58 224 0.0 0.0 0.02 0.28 0.02 94 1007.2
20260901030008 58 222 0.0 1.0 0.02 0.28 0.02 94 1007.2
20260901025006 58 222 0.0 1.0 0.00 0.26 0.00 94 1007.1
20260901024006 57 250 0.0 0.0 0.00 0.26 0.00 94 1007.1
20260901023008 57 219 0.0 2.0 0.00 0.26 0.00 94 1007.0
20260901022006 57 203 0.0 0.0 0.00 0.26 0.00 93 1007.0
20260901021006 57 206 0.0 1.0 0.00 0.26 0.00 93 1006.9
20260901020008 57 196 0.0 0.0 0.00 0.26 0.00 93 1006.9
20260901015006 57 181 0.0 0.0 0.00 0.26 0.00 93 1006.8
20260901014006 57 198 0.0 0.0 0.00 0.26 0.00 93 1006.7
20260901013009 57 191 0.0 0.0 0.00 0.26 0.00 93 1006.7
20260901012006 57 208 0.0 0.0 0.00 0.26 0.00 93 1006.7
20260901011006 57 194 0.0 0.0 0.00 0.26 0.00 93 1006.7
20260901010008 57 201 0.0 0.0 0.00 0.26 0.00 93 1006.7
20260901005006 57 198 0.0 0.0 0.00 0.26 0.00 93 1006.7
20260901004006 57 169 0.0 1.0 0.00 0.26 0.00 93 1006.7
20260901003009 57 197 0.0 0.0 0.00 0.26 0.00 93 1006.7
20260901002006 57 205 0.0 0.0 0.00 0.26 0.00 93 1006.7
20260901001006 57 214 0.0 0.0 0.00 0.26 0.00 93 1006.6
20260901000008 57 198 0.0 0.0 0.00 0.26 0.00 93 1006.6
20260831235006 58 184 0.0 0.0 0.00 0.26 0.00 93 1006.6
20260831234006 57 165 0.0 1.0 0.00 0.26 0.00 93 1006.5
20260831233008 58 221 0.0 0.0 0.00 0.26 0.00 93 1006.5
20260831232006 58 199 0.0 0.0 0.00 0.26 0.00 93 1006.5
20260831231006 58 197 0.0 0.0 0.00 0.26 0.00 93 1006.6
20260831230009 58 188 0.0 0.0 0.00 0.26 0.00 93 1006.6
20260831225006 59 165 0.0 0.0 0.00 0.26 0.00 93 1006.6
20260831224005 59 163 0.0 0.0 0.00 0.26 0.00 93 1006.6
20260831223008 59 193 0.0 1.0 0.00 0.26 0.00 93 1006.6
20260831222006 59 176 0.0 2.0 0.00 0.26 0.00 93 1006.6
20260831221010 59 184 0.0 0.0 0.00 0.26 0.00 93 1006.6
20260831220008 59 174 0.0 0.0 0.00 0.26 0.00 93 1006.6
20260831215006 59 184 0.0 0.0 0.00 0.26 0.26 93 1006.6
20260831214007 59 200 0.0 0.0 0.00 0.26 0.26 93 1006.6
20260831213009 60 209 0.0 0.0 0.00 0.26 0.26 92 1006.4
20260831212006 60 183 0.0 0.0 0.00 0.26 0.26 92 1006.3
20260831211006 59 170 0.0 0.0 0.00 0.26 0.26 92 1006.4
20260831210008 59 168 0.0 0.0 0.00 0.26 0.26 92 1006.2
20260831205005 59 171 0.0 1.0 0.00 0.26 0.26 92 1006.2
20260831204006 59 167 0.0 0.0 0.00 0.26 0.26 92 1006.1
20260831203009 59 168 0.0 0.0 0.00 0.26 0.26 92 1006.1
20260831202006 59 169 0.0 0.0 0.00 0.26 0.26 92 1006.1
20260831201005 59 171 0.0 0.0 0.00 0.26 0.26 92 1006.0
20260831200008 59 170 0.0 0.0 0.00 0.26 0.26 92 1006.0
20260831195006 59 165 0.0 0.0 0.00 0.26 0.26 92 1006.1
20260831194006 60 168 0.0 0.0 0.00 0.26 0.26 92 1006.1
20260831193010 60 164 0.0 1.0 0.00 0.26 0.26 92 1006.1
20260831192007 60 165 0.0 0.0 0.00 0.26 0.26 92 1006.0
20260831191006 60 174 0.0 0.0 0.00 0.26 0.26 92 1005.9
20260831190021 60 172 0.0 1.0 0.00 0.26 0.26 91 1005.8
20260831185006 60 176 0.0 0.0 0.00 0.26 0.26 91 1005.6
20260831184006 60 185 0.0 0.0 0.00 0.26 0.26 91 1005.6
20260831183009 61 186 0.0 0.0 0.00 0.26 0.26 91 1005.4
20260831182006 61 186 0.0 0.0 0.00 0.26 0.26 91 1005.4
20260831181006 61 184 0.0 0.0 0.00 0.26 0.26 91 1005.5
20260831180008 62 180 0.0 0.0 0.00 0.26 0.26 91 1005.6
20260831175007 62 181 0.0 0.0 0.00 0.26 0.26 91 1005.6
20260831174006 62 181 0.0 0.0 0.00 0.26 0.26 91 1005.4
20260831173008 62 176 0.0 0.0 0.00 0.26 0.26 91 1005.2
20260831172006 62 174 0.0 0.0 0.00 0.26 0.26 91 1005.2
20260831171006 62 160 0.0 0.0 0.00 0.26 0.26 90 1005.2
20260831170009 62 153 0.0 0.0 0.00 0.26 0.26 90 1005.2
20260831165006 62 153 0.0 0.0 0.00 0.26 0.26 90 1005.2
20260831164005 62 153 0.0 0.0 0.00 0.26 0.26 89 1005.4
20260831163007 62 153 0.0 0.0 0.01 0.26 0.26 89 1005.6
20260831162006 62 153 0.0 0.0 0.03 0.26 0.26 89 1005.3
20260831161006 62 151 0.0 0.0 0.06 0.26 0.26 88 1005.2
20260831160008 62 151 0.0 0.0 0.06 0.26 0.26 88 1005.1
20260831155005 62 151 0.0 0.0 0.09 0.26 0.26 87 1005.1
20260831154005 63 151 0.0 0.0 0.09 0.26 0.26 87 1005.0
20260831153008 64 144 0.0 3.0 0.09 0.25 0.25 86 1005.0
20260831152006 65 201 0.0 1.0 0.06 0.23 0.23 85 1005.4
20260831151005 65 217 0.0 3.0 0.04 0.20 0.20 83 1005.4
20260831150007 66 202 0.0 5.0 0.03 0.20 0.20 80 1005.4
20260831145006 67 237 1.0 5.0 0.00 0.17 0.17 76 1005.5
20260831144006 68 229 0.0 3.0 0.00 0.17 0.17 76 1005.2
20260831143008 69 231 0.0 5.0 0.00 0.17 0.17 77 1005.3
20260831142005 70 226 1.0 10.0 0.00 0.17 0.17 74 1005.3
20260831141005 70 209 0.0 6.0 0.00 0.18 0.17 73 1005.2
20260831140007 71 216 0.0 3.0 0.00 0.24 0.17 74 1005.1
20260831135006 71 220 1.0 7.0 0.00 0.30 0.17 75 1005.1
20260831134005 70 237 1.0 5.0 0.00 0.32 0.17 76 1005.1
20260831133008 70 205 0.0 12.0 0.00 0.32 0.17 76 1005.1
20260831132006 70 236 1.0 9.0 0.00 0.32 0.17 77 1005.1
20260831131005 70 204 0.0 7.0 0.00 0.32 0.17 80 1005.1
20260831130008 69 181 1.0 7.0 0.00 0.32 0.17 82 1005.1
20260831125006 69 201 0.0 7.0 0.00 0.32 0.17 82 1005.1
20260831124006 69 161 0.0 9.0 0.00 0.32 0.17 83 1005.1
20260831123008 69 176 1.0 9.0 0.00 0.32 0.17 85 1004.9
20260831122005 68 182 1.0 10.0 0.00 0.33 0.17 88 1005.0
20260831121006 67 168 4.0 12.0 0.00 0.33 0.17 89 1005.0
20260831120009 66 152 1.0 6.0 0.00 0.33 0.17 90 1005.1
20260831115006 66 167 1.0 13.0 0.00 0.33 0.17 91 1005.1
20260831114005 66 161 6.0 13.0 0.01 0.33 0.17 92 1005.1
20260831113008 65 160 5.0 15.0 0.01 0.33 0.17 92 1005.1
20260831112006 65 155 9.0 16.0 0.01 0.33 0.17 93 1005.1
20260831111006 64 125 6.0 13.0 0.01 0.34 0.17 93 1005.1
20260831110008 64 139 5.0 13.0 0.02 0.34 0.17 93 1005.1
20260831105005 63 158 6.0 13.0 0.03 0.34 0.17 93 1005.1
20260831104005 63 152 6.0 13.0 0.13 0.33 0.16 93 1005.5
20260831103008 63 166 6.0 15.0 0.13 0.34 0.16 93 1005.5
20260831102006 63 159 6.0 13.0 0.13 0.36 0.16 93 1005.2
20260831101006 63 159 5.0 13.0 0.13 0.39 0.16 93 1005.4
20260831100008 63 219 0.0 3.0 0.12 0.37 0.14 93 1005.2
20260831095005 64 293 2.0 12.0 0.11 0.36 0.13 94 1005.5
20260831094006 64 148 6.0 12.0 0.01 0.26 0.03 94 1005.6
20260831093008 64 137 4.0 9.0 0.00 0.25 0.02 94 1005.7
20260831092006 64 136 5.0 12.0 0.00 0.25 0.02 94 1005.6
20260831091006 63 150 6.0 10.0 0.00 0.25 0.02 94 1005.9
20260831090008 62 156 3.0 10.0 0.00 0.25 0.02 94 1006.0
20260831085006 62 157 3.0 9.0 0.00 0.25 0.02 94 1006.2
20260831084006 62 149 5.0 10.0 0.00 0.25 0.02 94 1006.2
20260831083007 62 156 5.0 12.0 0.01 0.25 0.02 94 1006.2
20260831082005 62 143 5.0 12.0 0.02 0.26 0.02 94 1006.2
20260831081005 62 138 5.0 10.0 0.02 0.26 0.02 94 1006.2
20260831080008 61 137 5.0 12.0 0.02 0.26 0.02 94 1006.2
20260831075005 61 157 6.0 9.0 0.02 0.26 0.02 94 1006.2
20260831074006 61 131 5.0 9.0 0.02 0.26 0.02 94 1006.2
20260831073007 60 143 2.0 7.0 0.02 0.25 0.02 94 1006.2